Year,Month,Day,Hour,Minute,Value (Times are PST for insolation in W/m^2)
2018,11,01,00,00,0.00
2018,11,01,00,01,0.00
2018,11,01,00,02,0.00
2018,11,01,00,03,0.00
2018,11,01,00,04,0.00
2018,11,01,00,05,0.00
2018,11,01,00,06,0.00
2018,11,01,00,07,0.00
2018,11,01,00,08,0.00
2018,11,01,00,09,0.00
2018,11,01,00,10,0.00
2018,11,01,00,11,0.00
2018,11,01,00,12,0.00
2018,11,01,00,13,0.00
2018,11,01,00,14,0.00
2018,11,01,00,15,0.00
2018,11,01,00,16,0.00
2018,11,01,00,17,0.00
2018,11,01,00,18,0.00
2018,11,01,00,19,0.00
2018,11,01,00,20,0.00
2018,11,01,00,21,0.00
2018,11,01,00,22,0.00
2018,11,01,00,23,0.00
2018,11,01,00,24,0.00
2018,11,01,00,25,0.00
2018,11,01,00,26,0.00
2018,11,01,00,27,0.00
2018,11,01,00,28,0.00
2018,11,01,00,29,0.00
2018,11,01,00,30,0.00
2018,11,01,00,31,0.00
2018,11,01,00,32,0.00
2018,11,01,00,33,0.00
2018,11,01,00,34,0.00
2018,11,01,00,35,0.00
2018,11,01,00,36,0.00
2018,11,01,00,37,0.00
2018,11,01,00,38,0.00
2018,11,01,00,39,0.00
2018,11,01,00,40,0.00
2018,11,01,00,41,0.00
2018,11,01,00,42,0.00
2018,11,01,00,43,0.00
2018,11,01,00,44,0.00
2018,11,01,00,45,0.00
2018,11,01,00,46,0.00
2018,11,01,00,47,0.00
2018,11,01,00,48,0.00
2018,11,01,00,49,0.00
2018,11,01,00,50,0.00
2018,11,01,00,51,0.00
2018,11,01,00,52,0.00
2018,11,01,00,53,0.00
2018,11,01,00,54,0.00
2018,11,01,00,55,0.00
2018,11,01,00,56,0.00
2018,11,01,00,57,0.00
2018,11,01,00,58,0.00
2018,11,01,00,59,0.00
2018,11,01,01,00,0.00
2018,11,01,01,01,0.00
2018,11,01,01,02,0.00
2018,11,01,01,03,0.00
2018,11,01,01,04,0.00
2018,11,01,01,05,0.00
2018,11,01,01,06,0.00
2018,11,01,01,07,0.00
2018,11,01,01,08,0.00
2018,11,01,01,09,0.00
2018,11,01,01,10,0.00
2018,11,01,01,11,0.00
2018,11,01,01,12,0.00
2018,11,01,01,13,0.00
2018,11,01,01,14,0.00
2018,11,01,01,15,0.00
2018,11,01,01,16,0.00
2018,11,01,01,17,0.00
2018,11,01,01,18,0.00
2018,11,01,01,19,0.00
2018,11,01,01,20,0.00
2018,11,01,01,21,0.00
2018,11,01,01,22,0.00
2018,11,01,01,23,0.00
2018,11,01,01,24,0.00
2018,11,01,01,25,0.00
2018,11,01,01,26,0.00
2018,11,01,01,27,0.00
2018,11,01,01,28,0.00
2018,11,01,01,29,0.00
2018,11,01,01,30,0.00
2018,11,01,01,31,0.00
2018,11,01,01,32,0.00
2018,11,01,01,33,0.00
2018,11,01,01,34,0.00
2018,11,01,01,35,0.00
2018,11,01,01,36,0.00
2018,11,01,01,37,0.00
2018,11,01,01,38,0.00
2018,11,01,01,39,0.00
2018,11,01,01,40,0.00
2018,11,01,01,41,0.00
2018,11,01,01,42,0.00
2018,11,01,01,43,0.00
2018,11,01,01,44,0.00
2018,11,01,01,45,0.00
2018,11,01,01,46,0.00
2018,11,01,01,47,0.00
2018,11,01,01,48,0.00
2018,11,01,01,49,0.00
2018,11,01,01,50,0.00
2018,11,01,01,51,0.00
2018,11,01,01,52,0.00
2018,11,01,01,53,0.00
2018,11,01,01,54,0.00
2018,11,01,01,55,0.00
2018,11,01,01,56,0.00
2018,11,01,01,57,0.00
2018,11,01,01,58,0.00
2018,11,01,01,59,0.00
2018,11,01,02,00,0.00
2018,11,01,02,01,0.00
2018,11,01,02,02,0.00
2018,11,01,02,03,0.00
2018,11,01,02,04,0.00
2018,11,01,02,05,0.00
2018,11,01,02,06,0.00
2018,11,01,02,07,0.00
2018,11,01,02,08,0.00
2018,11,01,02,09,0.00
2018,11,01,02,10,0.00
2018,11,01,02,11,0.00
2018,11,01,02,12,0.00
2018,11,01,02,13,0.00
2018,11,01,02,14,0.00
2018,11,01,02,15,0.00
2018,11,01,02,16,0.00
2018,11,01,02,17,0.00
2018,11,01,02,18,0.00
2018,11,01,02,19,0.00
2018,11,01,02,20,0.00
2018,11,01,02,21,0.00
2018,11,01,02,22,0.00
2018,11,01,02,23,0.00
2018,11,01,02,24,0.00
2018,11,01,02,25,0.00
2018,11,01,02,26,0.00
2018,11,01,02,27,0.00
2018,11,01,02,28,0.00
2018,11,01,02,29,0.00
2018,11,01,02,30,0.00
2018,11,01,02,31,0.00
2018,11,01,02,32,0.00
2018,11,01,02,33,0.00
2018,11,01,02,34,0.00
2018,11,01,02,35,0.00
2018,11,01,02,36,0.00
2018,11,01,02,37,0.00
2018,11,01,02,38,0.00
2018,11,01,02,39,0.00
2018,11,01,02,40,0.00
2018,11,01,02,41,0.00
2018,11,01,02,42,0.00
2018,11,01,02,43,0.00
2018,11,01,02,44,0.00
2018,11,01,02,45,0.00
2018,11,01,02,46,0.00
2018,11,01,02,47,0.00
2018,11,01,02,48,0.00
2018,11,01,02,49,0.00
2018,11,01,02,50,0.00
2018,11,01,02,51,0.00
2018,11,01,02,52,0.00
2018,11,01,02,53,0.00
2018,11,01,02,54,0.00
2018,11,01,02,55,0.00
2018,11,01,02,56,0.00
2018,11,01,02,57,0.00
2018,11,01,02,58,0.00
2018,11,01,02,59,0.00
2018,11,01,03,00,0.00
2018,11,01,03,01,0.00
2018,11,01,03,02,0.00
2018,11,01,03,03,0.00
2018,11,01,03,04,0.00
2018,11,01,03,05,0.00
2018,11,01,03,06,0.00
2018,11,01,03,07,0.00
2018,11,01,03,08,0.00
2018,11,01,03,09,0.00
2018,11,01,03,10,0.00
2018,11,01,03,11,0.00
2018,11,01,03,12,0.00
2018,11,01,03,13,0.00
2018,11,01,03,14,0.00
2018,11,01,03,15,0.00
2018,11,01,03,16,0.00
2018,11,01,03,17,0.00
2018,11,01,03,18,0.00
2018,11,01,03,19,0.00
2018,11,01,03,20,0.00
2018,11,01,03,21,0.00
2018,11,01,03,22,0.00
2018,11,01,03,23,0.00
2018,11,01,03,24,0.00
2018,11,01,03,25,0.00
2018,11,01,03,26,0.00
2018,11,01,03,27,0.00
2018,11,01,03,28,0.00
2018,11,01,03,29,0.00
2018,11,01,03,30,0.00
2018,11,01,03,31,0.00
2018,11,01,03,32,0.00
2018,11,01,03,33,0.00
2018,11,01,03,34,0.00
2018,11,01,03,35,0.00
2018,11,01,03,36,0.00
2018,11,01,03,37,0.00
2018,11,01,03,38,0.00
2018,11,01,03,39,0.00
2018,11,01,03,40,0.00
2018,11,01,03,41,0.00
2018,11,01,03,42,0.00
2018,11,01,03,43,0.00
2018,11,01,03,44,0.00
2018,11,01,03,45,0.00
2018,11,01,03,46,0.00
2018,11,01,03,47,0.00
2018,11,01,03,48,0.00
2018,11,01,03,49,0.00
2018,11,01,03,50,0.00
2018,11,01,03,51,0.00
2018,11,01,03,52,0.00
2018,11,01,03,53,0.00
2018,11,01,03,54,0.00
2018,11,01,03,55,0.00
2018,11,01,03,56,0.00
2018,11,01,03,57,0.00
2018,11,01,03,58,0.00
2018,11,01,03,59,0.00
2018,11,01,04,00,0.00
2018,11,01,04,01,0.00
2018,11,01,04,02,0.00
2018,11,01,04,03,0.00
2018,11,01,04,04,0.00
2018,11,01,04,05,0.00
2018,11,01,04,06,0.00
2018,11,01,04,07,0.00
2018,11,01,04,08,0.00
2018,11,01,04,09,0.00
2018,11,01,04,10,0.00
2018,11,01,04,11,0.00
2018,11,01,04,12,0.00
2018,11,01,04,13,0.00
2018,11,01,04,14,0.00
2018,11,01,04,15,0.00
2018,11,01,04,16,0.00
2018,11,01,04,17,0.00
2018,11,01,04,18,0.00
2018,11,01,04,19,0.00
2018,11,01,04,20,0.00
2018,11,01,04,21,0.00
2018,11,01,04,22,0.00
2018,11,01,04,23,0.00
2018,11,01,04,24,0.00
2018,11,01,04,25,0.00
2018,11,01,04,26,0.00
2018,11,01,04,27,0.00
2018,11,01,04,28,0.00
2018,11,01,04,29,0.00
2018,11,01,04,30,0.00
2018,11,01,04,31,0.00
2018,11,01,04,32,0.00
2018,11,01,04,33,0.00
2018,11,01,04,34,0.00
2018,11,01,04,35,0.00
2018,11,01,04,36,0.00
2018,11,01,04,37,0.00
2018,11,01,04,38,0.00
2018,11,01,04,39,0.00
2018,11,01,04,40,0.00
2018,11,01,04,41,0.00
2018,11,01,04,42,0.00
2018,11,01,04,43,0.00
2018,11,01,04,44,0.00
2018,11,01,04,45,0.00
2018,11,01,04,46,0.00
2018,11,01,04,47,0.00
2018,11,01,04,48,0.00
2018,11,01,04,49,0.00
2018,11,01,04,50,0.00
2018,11,01,04,51,0.00
2018,11,01,04,52,0.00
2018,11,01,04,53,0.00
2018,11,01,04,54,0.00
2018,11,01,04,55,0.00
2018,11,01,04,56,0.00
2018,11,01,04,57,0.00
2018,11,01,04,58,0.00
2018,11,01,04,59,0.00
2018,11,01,05,00,0.00
2018,11,01,05,01,0.00
2018,11,01,05,02,0.00
2018,11,01,05,03,0.00
2018,11,01,05,04,0.00
2018,11,01,05,05,0.00
2018,11,01,05,06,0.00
2018,11,01,05,07,0.00
2018,11,01,05,08,0.00
2018,11,01,05,09,0.00
2018,11,01,05,10,0.00
2018,11,01,05,11,0.00
2018,11,01,05,12,0.00
2018,11,01,05,13,0.00
2018,11,01,05,14,0.00
2018,11,01,05,15,0.00
2018,11,01,05,16,0.00
2018,11,01,05,17,0.00
2018,11,01,05,18,0.00
2018,11,01,05,19,0.00
2018,11,01,05,20,0.00
2018,11,01,05,21,0.00
2018,11,01,05,22,0.00
2018,11,01,05,23,0.00
2018,11,01,05,24,0.00
2018,11,01,05,25,0.00
2018,11,01,05,26,0.00
2018,11,01,05,27,0.00
2018,11,01,05,28,0.00
2018,11,01,05,29,0.00
2018,11,01,05,30,0.00
2018,11,01,05,31,0.00
2018,11,01,05,32,0.00
2018,11,01,05,33,0.00
2018,11,01,05,34,0.00
2018,11,01,05,35,0.00
2018,11,01,05,36,0.00
2018,11,01,05,37,0.00
2018,11,01,05,38,0.00
2018,11,01,05,39,0.00
2018,11,01,05,40,0.00
2018,11,01,05,41,0.00
2018,11,01,05,42,0.00
2018,11,01,05,43,0.00
2018,11,01,05,44,0.00
2018,11,01,05,45,0.00
2018,11,01,05,46,0.00
2018,11,01,05,47,0.00
2018,11,01,05,48,0.00
2018,11,01,05,49,0.00
2018,11,01,05,50,0.00
2018,11,01,05,51,0.00
2018,11,01,05,52,0.00
2018,11,01,05,53,0.00
2018,11,01,05,54,0.00
2018,11,01,05,55,0.00
2018,11,01,05,56,0.00
2018,11,01,05,57,0.00
2018,11,01,05,58,0.00
2018,11,01,05,59,0.00
2018,11,01,06,00,0.00
2018,11,01,06,01,0.00
2018,11,01,06,02,0.00
2018,11,01,06,03,0.00
2018,11,01,06,04,0.00
2018,11,01,06,05,0.00
2018,11,01,06,06,0.00
2018,11,01,06,07,0.00
2018,11,01,06,08,0.00
2018,11,01,06,09,0.00
2018,11,01,06,10,0.00
2018,11,01,06,11,0.00
2018,11,01,06,12,0.00
2018,11,01,06,13,0.00
2018,11,01,06,14,0.00
2018,11,01,06,15,0.00
2018,11,01,06,16,0.00
2018,11,01,06,17,0.00
2018,11,01,06,18,0.00
2018,11,01,06,19,0.00
2018,11,01,06,20,0.00
2018,11,01,06,21,0.00
2018,11,01,06,22,0.00
2018,11,01,06,23,0.00
2018,11,01,06,24,0.00
2018,11,01,06,25,0.00
2018,11,01,06,26,0.00
2018,11,01,06,27,0.00
2018,11,01,06,28,0.00
2018,11,01,06,29,0.00
2018,11,01,06,30,0.00
2018,11,01,06,31,0.00
2018,11,01,06,32,0.00
2018,11,01,06,33,0.00
2018,11,01,06,34,0.00
2018,11,01,06,35,0.00
2018,11,01,06,36,0.00
2018,11,01,06,37,0.00
2018,11,01,06,38,0.00
2018,11,01,06,39,0.00
2018,11,01,06,40,0.00
2018,11,01,06,41,0.00
2018,11,01,06,42,0.00
2018,11,01,06,43,0.00
2018,11,01,06,44,0.00
2018,11,01,06,45,0.00
2018,11,01,06,46,0.00
2018,11,01,06,47,0.00
2018,11,01,06,48,0.00
2018,11,01,06,49,0.00
2018,11,01,06,50,0.00
2018,11,01,06,51,0.00
2018,11,01,06,52,0.00
2018,11,01,06,53,0.00
2018,11,01,06,54,0.00
2018,11,01,06,55,0.00
2018,11,01,06,56,0.00
2018,11,01,06,57,0.00
2018,11,01,06,58,0.00
2018,11,01,06,59,0.00
2018,11,01,07,00,0.00
2018,11,01,07,01,0.00
2018,11,01,07,02,0.00
2018,11,01,07,03,0.00
2018,11,01,07,04,0.00
2018,11,01,07,05,0.00
2018,11,01,07,06,0.00
2018,11,01,07,07,0.00
2018,11,01,07,08,0.00
2018,11,01,07,09,0.00
2018,11,01,07,10,0.00
2018,11,01,07,11,0.00
2018,11,01,07,12,0.00
2018,11,01,07,13,0.00
2018,11,01,07,14,0.00
2018,11,01,07,15,0.00
2018,11,01,07,16,0.00
2018,11,01,07,17,0.00
2018,11,01,07,18,0.00
2018,11,01,07,19,0.00
2018,11,01,07,20,0.00
2018,11,01,07,21,0.00
2018,11,01,07,22,0.00
2018,11,01,07,23,0.00
2018,11,01,07,24,0.00
2018,11,01,07,25,0.00
2018,11,01,07,26,0.00
2018,11,01,07,27,0.00
2018,11,01,07,28,0.00
2018,11,01,07,29,0.00
2018,11,01,07,30,0.00
2018,11,01,07,31,0.00
2018,11,01,07,32,0.00
2018,11,01,07,33,0.00
2018,11,01,07,34,0.00
2018,11,01,07,35,0.00
2018,11,01,07,36,0.00
2018,11,01,07,37,0.00
2018,11,01,07,38,0.00
2018,11,01,07,39,0.00
2018,11,01,07,40,0.00
2018,11,01,07,41,0.00
2018,11,01,07,42,0.00
2018,11,01,07,43,0.00
2018,11,01,07,44,0.00
2018,11,01,07,45,0.00
2018,11,01,07,46,0.00
2018,11,01,07,47,0.00
2018,11,01,07,48,0.00
2018,11,01,07,49,0.00
2018,11,01,07,50,0.00
2018,11,01,07,51,0.00
2018,11,01,07,52,0.00
2018,11,01,07,53,0.00
2018,11,01,07,54,0.00
2018,11,01,07,55,0.00
2018,11,01,07,56,0.00
2018,11,01,07,57,0.00
2018,11,01,07,58,0.00
2018,11,01,07,59,0.00
2018,11,01,08,00,0.00
2018,11,01,08,01,0.00
2018,11,01,08,02,0.00
2018,11,01,08,03,0.00
2018,11,01,08,04,0.00
2018,11,01,08,05,0.00
2018,11,01,08,06,0.00
2018,11,01,08,07,0.00
2018,11,01,08,08,0.00
2018,11,01,08,09,0.00
2018,11,01,08,10,0.00
2018,11,01,08,11,0.00
2018,11,01,08,12,0.00
2018,11,01,08,13,0.00
2018,11,01,08,14,0.00
2018,11,01,08,15,0.00
2018,11,01,08,16,0.00
2018,11,01,08,17,0.00
2018,11,01,08,18,0.00
2018,11,01,08,19,0.00
2018,11,01,08,20,0.00
2018,11,01,08,21,0.00
2018,11,01,08,22,0.00
2018,11,01,08,23,3.10
2018,11,01,08,24,5.00
2018,11,01,08,25,5.00
2018,11,01,08,26,5.00
2018,11,01,08,27,5.00
2018,11,01,08,28,5.00
2018,11,01,08,29,5.00
2018,11,01,08,30,5.00
2018,11,01,08,31,6.90
2018,11,01,08,32,7.00
2018,11,01,08,33,7.00
2018,11,01,08,34,7.00
2018,11,01,08,35,5.70
2018,11,01,08,36,5.00
2018,11,01,08,37,5.00
2018,11,01,08,38,5.00
2018,11,01,08,39,5.80
2018,11,01,08,40,7.00
2018,11,01,08,41,7.00
2018,11,01,08,42,7.00
2018,11,01,08,43,7.00
2018,11,01,08,44,7.50
2018,11,01,08,45,9.00
2018,11,01,08,46,9.00
2018,11,01,08,47,9.00
2018,11,01,08,48,10.70
2018,11,01,08,49,11.00
2018,11,01,08,50,11.00
2018,11,01,08,51,11.00
2018,11,01,08,52,11.00
2018,11,01,08,53,11.00
2018,11,01,08,54,11.00
2018,11,01,08,55,11.00
2018,11,01,08,56,11.30
2018,11,01,08,57,12.00
2018,11,01,08,58,12.00
2018,11,01,08,59,11.20
2018,11,01,09,00,11.00
2018,11,01,09,01,11.00
2018,11,01,09,02,11.00
2018,11,01,09,03,11.00
2018,11,01,09,04,11.00
2018,11,01,09,05,11.00
2018,11,01,09,06,11.00
2018,11,01,09,07,11.00
2018,11,01,09,08,11.00
2018,11,01,09,09,11.00
2018,11,01,09,10,11.00
2018,11,01,09,11,11.00
2018,11,01,09,12,11.80
2018,11,01,09,13,11.00
2018,11,01,09,14,11.00
2018,11,01,09,15,11.00
2018,11,01,09,16,11.70
2018,11,01,09,17,12.00
2018,11,01,09,18,12.20
2018,11,01,09,19,14.00
2018,11,01,09,20,14.00
2018,11,01,09,21,14.00
2018,11,01,09,22,17.50
2018,11,01,09,23,20.70
2018,11,01,09,24,22.60
2018,11,01,09,25,20.40
2018,11,01,09,26,19.00
2018,11,01,09,27,18.40
2018,11,01,09,28,18.00
2018,11,01,09,29,18.00
2018,11,01,09,30,18.10
2018,11,01,09,31,19.00
2018,11,01,09,32,19.80
2018,11,01,09,33,19.90
2018,11,01,09,34,19.00
2018,11,01,09,35,20.70
2018,11,01,09,36,19.00
2018,11,01,09,37,19.00
2018,11,01,09,38,18.60
2018,11,01,09,39,16.80
2018,11,01,09,40,16.00
2018,11,01,09,41,16.00
2018,11,01,09,42,16.00
2018,11,01,09,43,16.00
2018,11,01,09,44,17.00
2018,11,01,09,45,16.70
2018,11,01,09,46,16.00
2018,11,01,09,47,15.90
2018,11,01,09,48,14.00
2018,11,01,09,49,13.20
2018,11,01,09,50,12.00
2018,11,01,09,51,12.00
2018,11,01,09,52,12.00
2018,11,01,09,53,14.10
2018,11,01,09,54,16.00
2018,11,01,09,55,16.80
2018,11,01,09,56,18.50
2018,11,01,09,57,20.30
2018,11,01,09,58,22.60
2018,11,01,09,59,23.00
2018,11,01,10,00,23.50
2018,11,01,10,01,25.40
2018,11,01,10,02,26.00
2018,11,01,10,03,27.40
2018,11,01,10,04,28.00
2018,11,01,10,05,28.30
2018,11,01,10,06,30.00
2018,11,01,10,07,32.10
2018,11,01,10,08,35.00
2018,11,01,10,09,33.60
2018,11,01,10,10,34.70
2018,11,01,10,11,37.00
2018,11,01,10,12,37.60
2018,11,01,10,13,39.00
2018,11,01,10,14,37.80
2018,11,01,10,15,39.20
2018,11,01,10,16,41.70
2018,11,01,10,17,41.70
2018,11,01,10,18,39.00
2018,11,01,10,19,37.00
2018,11,01,10,20,37.00
2018,11,01,10,21,37.00
2018,11,01,10,22,36.80
2018,11,01,10,23,33.00
2018,11,01,10,24,32.60
2018,11,01,10,25,31.00
2018,11,01,10,26,30.00
2018,11,01,10,27,30.00
2018,11,01,10,28,30.00
2018,11,01,10,29,30.00
2018,11,01,10,30,30.00
2018,11,01,10,31,31.00
2018,11,01,10,32,32.00
2018,11,01,10,33,30.40
2018,11,01,10,34,30.00
2018,11,01,10,35,30.00
2018,11,01,10,36,30.00
2018,11,01,10,37,30.00
2018,11,01,10,38,30.00
2018,11,01,10,39,30.00
2018,11,01,10,40,29.80
2018,11,01,10,41,28.00
2018,11,01,10,42,27.20
2018,11,01,10,43,27.10
2018,11,01,10,44,29.30
2018,11,01,10,45,30.00
2018,11,01,10,46,30.30
2018,11,01,10,47,31.40
2018,11,01,10,48,30.80
2018,11,01,10,49,30.90
2018,11,01,10,50,30.00
2018,11,01,10,51,30.00
2018,11,01,10,52,31.70
2018,11,01,10,53,30.00
2018,11,01,10,54,30.00
2018,11,01,10,55,30.00
2018,11,01,10,56,31.50
2018,11,01,10,57,32.00
2018,11,01,10,58,31.60
2018,11,01,10,59,30.00
2018,11,01,11,00,30.00
2018,11,01,11,01,30.00
2018,11,01,11,02,28.50
2018,11,01,11,03,29.80
2018,11,01,11,04,30.00
2018,11,01,11,05,30.00
2018,11,01,11,06,30.00
2018,11,01,11,07,30.00
2018,11,01,11,08,30.00
2018,11,01,11,09,30.00
2018,11,01,11,10,29.60
2018,11,01,11,11,28.00
2018,11,01,11,12,28.00
2018,11,01,11,13,28.00
2018,11,01,11,14,28.00
2018,11,01,11,15,26.10
2018,11,01,11,16,26.00
2018,11,01,11,17,26.00
2018,11,01,11,18,26.00
2018,11,01,11,19,26.00
2018,11,01,11,20,27.70
2018,11,01,11,21,28.00
2018,11,01,11,22,27.50
2018,11,01,11,23,25.60
2018,11,01,11,24,23.90
2018,11,01,11,25,23.00
2018,11,01,11,26,23.00
2018,11,01,11,27,23.00
2018,11,01,11,28,23.00
2018,11,01,11,29,23.00
2018,11,01,11,30,23.00
2018,11,01,11,31,24.40
2018,11,01,11,32,25.90
2018,11,01,11,33,28.30
2018,11,01,11,34,30.00
2018,11,01,11,35,29.20
2018,11,01,11,36,28.00
2018,11,01,11,37,28.00
2018,11,01,11,38,29.70
2018,11,01,11,39,32.00
2018,11,01,11,40,31.40
2018,11,01,11,41,30.00
2018,11,01,11,42,30.00
2018,11,01,11,43,30.00
2018,11,01,11,44,30.00
2018,11,01,11,45,29.60
2018,11,01,11,46,28.00
2018,11,01,11,47,28.00
2018,11,01,11,48,28.00
2018,11,01,11,49,28.00
2018,11,01,11,50,28.10
2018,11,01,11,51,29.60
2018,11,01,11,52,27.30
2018,11,01,11,53,26.00
2018,11,01,11,54,26.00
2018,11,01,11,55,26.00
2018,11,01,11,56,26.00
2018,11,01,11,57,26.00
2018,11,01,11,58,26.80
2018,11,01,11,59,28.00
2018,11,01,12,00,28.00
2018,11,01,12,01,28.00
2018,11,01,12,02,26.10
2018,11,01,12,03,26.50
2018,11,01,12,04,28.00
2018,11,01,12,05,29.10
2018,11,01,12,06,30.00
2018,11,01,12,07,30.00
2018,11,01,12,08,28.10
2018,11,01,12,09,28.00
2018,11,01,12,10,27.20
2018,11,01,12,11,27.00
2018,11,01,12,12,28.00
2018,11,01,12,13,29.70
2018,11,01,12,14,32.10
2018,11,01,12,15,33.00
2018,11,01,12,16,33.90
2018,11,01,12,17,35.00
2018,11,01,12,18,35.00
2018,11,01,12,19,36.70
2018,11,01,12,20,37.00
2018,11,01,12,21,37.00
2018,11,01,12,22,37.90
2018,11,01,12,23,37.80
2018,11,01,12,24,37.00
2018,11,01,12,25,37.00
2018,11,01,12,26,37.00
2018,11,01,12,27,37.80
2018,11,01,12,28,39.00
2018,11,01,12,29,39.60
2018,11,01,12,30,39.20
2018,11,01,12,31,39.00
2018,11,01,12,32,39.00
2018,11,01,12,33,39.30
2018,11,01,12,34,41.00
2018,11,01,12,35,42.00
2018,11,01,12,36,42.00
2018,11,01,12,37,42.20
2018,11,01,12,38,44.00
2018,11,01,12,39,44.00
2018,11,01,12,40,43.00
2018,11,01,12,41,40.60
2018,11,01,12,42,39.20
2018,11,01,12,43,36.90
2018,11,01,12,44,35.40
2018,11,01,12,45,37.00
2018,11,01,12,46,37.00
2018,11,01,12,47,35.60
2018,11,01,12,48,35.00
2018,11,01,12,49,34.80
2018,11,01,12,50,33.60
2018,11,01,12,51,35.00
2018,11,01,12,52,33.90
2018,11,01,12,53,32.30
2018,11,01,12,54,32.80
2018,11,01,12,55,33.00
2018,11,01,12,56,34.00
2018,11,01,12,57,36.20
2018,11,01,12,58,33.90
2018,11,01,12,59,33.00
2018,11,01,13,00,34.70
2018,11,01,13,01,35.00
2018,11,01,13,02,35.00
2018,11,01,13,03,35.00
2018,11,01,13,04,33.30
2018,11,01,13,05,32.00
2018,11,01,13,06,32.00
2018,11,01,13,07,33.00
2018,11,01,13,08,33.00
2018,11,01,13,09,34.00
2018,11,01,13,10,33.80
2018,11,01,13,11,33.00
2018,11,01,13,12,35.30
2018,11,01,13,13,40.00
2018,11,01,13,14,39.70
2018,11,01,13,15,39.00
2018,11,01,13,16,36.60
2018,11,01,13,17,36.50
2018,11,01,13,18,36.80
2018,11,01,13,19,35.00
2018,11,01,13,20,35.00
2018,11,01,13,21,34.00
2018,11,01,13,22,33.00
2018,11,01,13,23,36.20
2018,11,01,13,24,39.00
2018,11,01,13,25,38.80
2018,11,01,13,26,34.20
2018,11,01,13,27,34.10
2018,11,01,13,28,37.70
2018,11,01,13,29,39.00
2018,11,01,13,30,38.50
2018,11,01,13,31,34.50
2018,11,01,13,32,32.60
2018,11,01,13,33,29.90
2018,11,01,13,34,29.50
2018,11,01,13,35,28.30
2018,11,01,13,36,28.70
2018,11,01,13,37,33.40
2018,11,01,13,38,37.80
2018,11,01,13,39,37.80
2018,11,01,13,40,33.30
2018,11,01,13,41,32.00
2018,11,01,13,42,32.10
2018,11,01,13,43,33.00
2018,11,01,13,44,31.60
2018,11,01,13,45,28.80
2018,11,01,13,46,26.50
2018,11,01,13,47,25.20
2018,11,01,13,48,25.80
2018,11,01,13,49,24.40
2018,11,01,13,50,24.00
2018,11,01,13,51,25.00
2018,11,01,13,52,23.60
2018,11,01,13,53,23.00
2018,11,01,13,54,23.00
2018,11,01,13,55,22.30
2018,11,01,13,56,21.00
2018,11,01,13,57,19.70
2018,11,01,13,58,18.20
2018,11,01,13,59,18.30
2018,11,01,14,00,22.20
2018,11,01,14,01,26.00
2018,11,01,14,02,27.00
2018,11,01,14,03,28.00
2018,11,01,14,04,31.30
2018,11,01,14,05,31.30
2018,11,01,14,06,25.70
2018,11,01,14,07,24.10
2018,11,01,14,08,23.00
2018,11,01,14,09,23.00
2018,11,01,14,10,23.00
2018,11,01,14,11,21.30
2018,11,01,14,12,22.00
2018,11,01,14,13,19.00
2018,11,01,14,14,18.40
2018,11,01,14,15,16.60
2018,11,01,14,16,16.00
2018,11,01,14,17,15.70
2018,11,01,14,18,14.00
2018,11,01,14,19,14.00
2018,11,01,14,20,14.00
2018,11,01,14,21,15.40
2018,11,01,14,22,16.10
2018,11,01,14,23,18.20
2018,11,01,14,24,18.70
2018,11,01,14,25,17.10
2018,11,01,14,26,14.80
2018,11,01,14,27,14.00
2018,11,01,14,28,14.00
2018,11,01,14,29,14.00
2018,11,01,14,30,14.00
2018,11,01,14,31,14.90
2018,11,01,14,32,16.00
2018,11,01,14,33,17.60
2018,11,01,14,34,18.90
2018,11,01,14,35,17.10
2018,11,01,14,36,14.00
2018,11,01,14,37,16.10
2018,11,01,14,38,18.00
2018,11,01,14,39,16.40
2018,11,01,14,40,16.00
2018,11,01,14,41,15.00
2018,11,01,14,42,12.70
2018,11,01,14,43,14.00
2018,11,01,14,44,14.00
2018,11,01,14,45,15.60
2018,11,01,14,46,11.20
2018,11,01,14,47,12.50
2018,11,01,14,48,16.80
2018,11,01,14,49,15.80
2018,11,01,14,50,15.20
2018,11,01,14,51,14.30
2018,11,01,14,52,17.30
2018,11,01,14,53,13.50
2018,11,01,14,54,11.60
2018,11,01,14,55,11.00
2018,11,01,14,56,11.00
2018,11,01,14,57,11.00
2018,11,01,14,58,11.20
2018,11,01,14,59,12.60
2018,11,01,15,00,14.80
2018,11,01,15,01,17.20
2018,11,01,15,02,18.80
2018,11,01,15,03,19.00
2018,11,01,15,04,21.30
2018,11,01,15,05,21.80
2018,11,01,15,06,20.70
2018,11,01,15,07,23.00
2018,11,01,15,08,25.10
2018,11,01,15,09,23.20
2018,11,01,15,10,18.80
2018,11,01,15,11,18.00
2018,11,01,15,12,17.00
2018,11,01,15,13,14.70
2018,11,01,15,14,14.00
2018,11,01,15,15,14.00
2018,11,01,15,16,13.40
2018,11,01,15,17,11.00
2018,11,01,15,18,11.50
2018,11,01,15,19,12.00
2018,11,01,15,20,12.00
2018,11,01,15,21,10.90
2018,11,01,15,22,9.00
2018,11,01,15,23,9.70
2018,11,01,15,24,11.50
2018,11,01,15,25,12.00
2018,11,01,15,26,15.30
2018,11,01,15,27,14.20
2018,11,01,15,28,13.60
2018,11,01,15,29,12.70
2018,11,01,15,30,14.00
2018,11,01,15,31,12.60
2018,11,01,15,32,12.00
2018,11,01,15,33,11.90
2018,11,01,15,34,10.50
2018,11,01,15,35,9.90
2018,11,01,15,36,9.80
2018,11,01,15,37,7.60
2018,11,01,15,38,7.00
2018,11,01,15,39,9.00
2018,11,01,15,40,9.00
2018,11,01,15,41,9.00
2018,11,01,15,42,10.10
2018,11,01,15,43,11.00
2018,11,01,15,44,11.90
2018,11,01,15,45,11.80
2018,11,01,15,46,11.00
2018,11,01,15,47,11.00
2018,11,01,15,48,11.00
2018,11,01,15,49,11.00
2018,11,01,15,50,10.90
2018,11,01,15,51,9.70
2018,11,01,15,52,12.00
2018,11,01,15,53,12.00
2018,11,01,15,54,12.00
2018,11,01,15,55,11.20
2018,11,01,15,56,11.80
2018,11,01,15,57,11.20
2018,11,01,15,58,11.60
2018,11,01,15,59,11.00
2018,11,01,16,00,11.60
2018,11,01,16,01,11.20
2018,11,01,16,02,13.60
2018,11,01,16,03,12.00
2018,11,01,16,04,12.00
2018,11,01,16,05,12.00
2018,11,01,16,06,13.30
2018,11,01,16,07,12.30
2018,11,01,16,08,12.00
2018,11,01,16,09,12.00
2018,11,01,16,10,11.60
2018,11,01,16,11,11.60
2018,11,01,16,12,11.30
2018,11,01,16,13,11.00
2018,11,01,16,14,11.80
2018,11,01,16,15,10.50
2018,11,01,16,16,8.20
2018,11,01,16,17,9.30
2018,11,01,16,18,9.60
2018,11,01,16,19,9.00
2018,11,01,16,20,11.00
2018,11,01,16,21,10.40
2018,11,01,16,22,9.00
2018,11,01,16,23,9.00
2018,11,01,16,24,9.00
2018,11,01,16,25,9.00
2018,11,01,16,26,9.00
2018,11,01,16,27,8.50
2018,11,01,16,28,7.00
2018,11,01,16,29,8.20
2018,11,01,16,30,9.00
2018,11,01,16,31,10.70
2018,11,01,16,32,9.00
2018,11,01,16,33,9.00
2018,11,01,16,34,9.00
2018,11,01,16,35,10.10
2018,11,01,16,36,9.40
2018,11,01,16,37,9.00
2018,11,01,16,38,8.60
2018,11,01,16,39,6.30
2018,11,01,16,40,6.00
2018,11,01,16,41,8.30
2018,11,01,16,42,7.40
2018,11,01,16,43,6.80
2018,11,01,16,44,5.40
2018,11,01,16,45,7.00
2018,11,01,16,46,8.10
2018,11,01,16,47,7.70
2018,11,01,16,48,7.00
2018,11,01,16,49,6.80
2018,11,01,16,50,5.00
2018,11,01,16,51,5.00
2018,11,01,16,52,2.30
2018,11,01,16,53,0.00
2018,11,01,16,54,0.00
2018,11,01,16,55,5.00
2018,11,01,16,56,7.00
2018,11,01,16,57,7.00
2018,11,01,16,58,7.00
2018,11,01,16,59,7.00
2018,11,01,17,00,7.00
2018,11,01,17,01,5.00
2018,11,01,17,02,3.50
2018,11,01,17,03,0.00
2018,11,01,17,04,0.00
2018,11,01,17,05,3.50
2018,11,01,17,06,6.70
2018,11,01,17,07,7.00
2018,11,01,17,08,7.60
2018,11,01,17,09,9.00
2018,11,01,17,10,9.00
2018,11,01,17,11,7.50
2018,11,01,17,12,7.00
2018,11,01,17,13,5.00
2018,11,01,17,14,5.00
2018,11,01,17,15,5.00
2018,11,01,17,16,5.00
2018,11,01,17,17,5.00
2018,11,01,17,18,0.40
2018,11,01,17,19,0.00
2018,11,01,17,20,0.00
2018,11,01,17,21,0.00
2018,11,01,17,22,3.40
2018,11,01,17,23,5.00
2018,11,01,17,24,4.60
2018,11,01,17,25,0.00
2018,11,01,17,26,0.00
2018,11,01,17,27,2.60
2018,11,01,17,28,5.00
2018,11,01,17,29,5.00
2018,11,01,17,30,0.20
2018,11,01,17,31,0.00
2018,11,01,17,32,0.00
2018,11,01,17,33,0.00
2018,11,01,17,34,0.00
2018,11,01,17,35,0.00
2018,11,01,17,36,0.00
2018,11,01,17,37,0.00
2018,11,01,17,38,0.00
2018,11,01,17,39,0.00
2018,11,01,17,40,0.00
2018,11,01,17,41,0.00
2018,11,01,17,42,0.00
2018,11,01,17,43,0.00
2018,11,01,17,44,0.00
2018,11,01,17,45,0.00
2018,11,01,17,46,0.00